Main page
Satellite images Climate Cyclones Lightning AirportsFAQ Languages Contact Newsletter About
Weather : Europe Africa North America South America Asia Australia-Oceania Others

, Penang, Penang International Airport

48601

latitude: , longitude: Malaysia, elevation: 05-18N m


METAR: WMKP 212030Z VRB03KT 8000 FEW025 SCT140 BKN270 25/24 Q1009 NOSIG